Vorticity
29 -9 30 -1 13 -4 32 3 3 34 5 14 5 9 3 6 8 6 10 14 12 7 9 2 4 5 10 9 3 15 20 2 8 7 5 9 8 6 10 8 9 8 9 12
7 21 60 -16 10 -2 34 -2 24 -5 6 2 30 2 9 8 4 5 12 20 16 8 17 15 23 3 10 12 19 22 7 -6 7 7 7 7 8 8 6 5 6 6 6 6
13 33 11 6 -6 21 1 38 8 8 10 2 15 7 12 7 9 5 10 16 13 9 8 7 6 16 6 4 7 3 4 9 5 9 9 10 7 6 5 6 2 8 7 7
83 14 8 27 -25 73 3 5 28 0 5 5 17 15 11 13 11 6 8 12 14 11 9 1 13 11 8 16 -2 1 11 10 8 9 9 7 8 7 7 4 5 3 5 6
-12 29 -7 -7 1 6 4 5 -15 20 17 19 -2 7 19 15 7 8 9 7 18 11 4 12 13 20 18 27 -11 6 8 9 6 6 4 5 5 4 6 5 6 5 7 5
1 11 -1 3 -10 48 7 4 1 10 13 16 26 4 13 12 11 8 6 9 10 15 10 10 16 4 1 -2 3 5 6 7 7 6 4 5 5 5 4 4 5 3 6 7
14 -6 4 7 9 -0 6 -2 32 53 14 29 -1 5 3 6 10 9 11 7 13 6 8 5 5 5 5 4 8 9 6 4 6 8 7 6 5 6 5 3 4 4 4 6
5 -2 23 15 26 10 6 7 6 12 7 4 2 -0 9 5 3 13 11 16 6 12 12 6 3 3 5 9 7 6 6 6 6 9 8 6 6 7 6 5 5 2 2 9
-14 8 13 4 2 7 9 12 13 7 79 33 0 5 5 18 -3 9 9 12 26 9 11 13 12 9 9 11 8 8 10 10 10 11 10 9 7 7 7 7 5 3 6 8
14 -1 -2 -3 -5 2 2 1 4 11 1 50 -1 4 6 11 4 -1 10 9 12 11 18 12 10 7 2 5 7 10 8 7 6 6 6 5 4 4 4 5 5 6 6 7
10 8 -3 8 -4 -7 -4 -3 1 3 -2 9 20 37 4 5 12 15 3 6 9 8 15 15 19 11 9 1 1 4 4 8 8 9 8 7 4 4 6 6 6 8 9 8
17 22 1 1 -1 3 16 3 10 -1 4 4 5 -0 29 18 -1 4 8 22 4 11 6 14 29 14 14 3 8 3 -3 -1 -3 1 3 -0 3 7 6 5 5 8 7 11
18 27 20 1 9 15 -1 9 13 2 13 -0 7 9 11 15 -2 20 3 10 12 8 6 7 16 30 -24 26 24 6 7 8 7 -1 6 -3 4 5 6 5 9 5 12 7
15 8 40 -2 -8 -0 -5 12 0 21 2 7 -12 16 -6 -0 43 13 -2 3 6 14 8 9 8 11 13 8 15 -4 12 8 -2 31 12 -1 4 6 4 7 4 11 9 11
-3 1 15 19 -8 2 -6 0 -1 4 6 -1 3 19 4 15 10 5 -1 -0 -3 3 8 12 8 7 9 19 25 36 21 1 2 5 6 6 10 8 5 5 14 10 14 1
-1 2 1 20 37 -7 -0 -7 -3 -4 13 9 17 16 18 15 5 0 3 -3 1 8 3 10 11 7 8 9 11 13 16 21 23 26 15 11 10 5 6 10 9 10 5 10
10 11 2 11 10 30 15 -8 -5 -1 9 2 -6 9 -7 7 8 0 -2 4 2 8 4 6 10 12 9 8 9 7 9 10 9 10 9 5 7 7 6 12 10 11 14 11
8 3 8 3 6 8 28 20 -3 12 -16 10 6 22 17 -4 8 8 -2 15 7 16 7 3 7 7 15 9 7 6 4 12 5 8 5 9 12 13 8 9 11 12 13 9
4 7 5 3 6 10 31 26 -8 -4 13 -0 26 4 20 14 20 4 16 7 -2 -15 7 9 8 7 10 11 12 11 17 2 6 8 5 10 12 13 10 12 12 11 11 15
10 8 7 9 7 2 15 2 -4 -3 -10 21 -11 -4 15 15 1 19 8 9 4 21 7 17 6 4 2 6 9 11 10 7 8 5 11 8 17 24 24 15 11 18 11 13
10 9 9 7 5 6 7 25 -2 4 13 -10 19 5 3 12 0 -3 12 5 -8 -5 -3 21 3 12 10 7 13 9 9 9 10 11 12 9 16 14 15 16 13 11 12 11
10 11 10 10 8 5 12 21 21 -11 2 -0 7 9 -2 -1 -6 7 1 2 7 -1 -2 21 10 3 8 14 12 10 12 15 11 16 15 13 8 9 8 10 10 10 10 11
9 8 13 10 3 7 10 11 15 4 -6 5 5 -4 26 20 -7 27 5 -6 8 21 9 19 8 6 10 7 17 8 14 16 14 12 17 11 9 8 8 8 9 11 10 9
9 10 10 9 7 5 5 7 19 7 -7 -0 32 -0 4 15 19 -2 3 34 10 -43 -47 7 10 4 5 5 9 3 10 15 14 11 14 9 8 9 12 13 13 9 8 9
11 10 11 12 11 6 8 5 6 16 2 3 2 5 -1 8 9 22 16 -4 4 12 107 4 11 3 2 5 10 10 11 13 15 13 3 9 12 11 9 10 8 7 8 10
9 10 8 10 9 8 12 3 5 8 10 7 3 3 -3 5 11 11 14 9 7 -12 48 26 1 -2 1 3 11 13 12 13 15 11 11 9 11 8 10 10 8 9 10 9
Height
5901 5901 5898 5905 5906 5903 5895 5897 5895 5893 5896 5898 5900 5901 5897 5897 5894 5895 5893 5892 5892 5891 5891 5893 5893 5896 5899 5902 5905 5909 5908 5913 5917 5920 5919 5922 5922 5923 5923 5924 5926 5924 5924 5925
5901 5898 5892 5901 5903 5901 5893 5892 5895 5895 5894 5897 5901 5901 5900 5897 5895 5895 5895 5893 5894 5894 5894 5895 5895 5898 5901 5903 5906 5906 5910 5914 5917 5919 5922 5923 5923 5924 5924 5924 5924 5925 5924 5923
5902 5898 5893 5894 5898 5899 5895 5896 5895 5897 5896 5896 5901 5901 5899 5897 5897 5896 5897 5895 5896 5896 5897 5897 5900 5903 5901 5903 5904 5908 5912 5916 5918 5921 5923 5924 5923 5924 5923 5923 5923 5923 5924 5925
5898 5899 5900 5900 5898 5895 5898 5899 5899 5899 5898 5897 5897 5898 5898 5900 5899 5899 5899 5898 5899 5899 5898 5898 5898 5898 5900 5903 5907 5912 5917 5919 5920 5922 5924 5924 5925 5925 5924 5925 5925 5927 5926 5926
5906 5903 5902 5901 5900 5895 5899 5899 5901 5902 5900 5897 5897 5899 5898 5899 5901 5901 5901 5900 5901 5901 5901 5903 5901 5901 5903 5905 5912 5915 5918 5920 5921 5922 5922 5923 5924 5925 5926 5925 5926 5925 5926 5926
5903 5904 5904 5900 5904 5901 5900 5896 5896 5899 5901 5900 5900 5901 5898 5898 5900 5902 5902 5902 5905 5905 5902 5904 5905 5907 5909 5912 5914 5917 5918 5919 5920 5922 5922 5922 5924 5925 5925 5925 5926 5926 5926 5925
5904 5905 5903 5902 5906 5905 5901 5899 5898 5899 5902 5903 5901 5900 5898 5896 5896 5897 5902 5904 5906 5906 5905 5907 5909 5911 5912 5914 5915 5917 5918 5919 5921 5922 5923 5923 5924 5924 5926 5926 5926 5925 5923 5924
5905 5905 5905 5906 5904 5904 5906 5908 5906 5902 5903 5903 5902 5900 5899 5900 5901 5900 5899 5902 5905 5907 5908 5909 5910 5911 5913 5914 5915 5915 5916 5918 5920 5922 5923 5924 5924 5924 5924 5923 5923 5923 5923 5924
5908 5906 5906 5907 5909 5910 5910 5909 5908 5905 5894 5897 5901 5903 5902 5901 5902 5901 5900 5904 5905 5906 5908 5910 5911 5913 5914 5915 5915 5916 5918 5920 5922 5922 5923 5924 5924 5924 5925 5925 5923 5921 5922 5921
5908 5907 5908 5910 5910 5911 5911 5910 5911 5909 5906 5900 5902 5904 5904 5904 5904 5902 5902 5902 5905 5906 5907 5909 5911 5913 5913 5915 5918 5919 5920 5921 5921 5920 5921 5921 5921 5922 5923 5923 5922 5921 5920 5918
5906 5909 5910 5910 5908 5909 5911 5911 5912 5911 5911 5909 5908 5905 5907 5905 5906 5906 5906 5905 5904 5905 5907 5906 5908 5911 5913 5913 5915 5920 5921 5922 5922 5922 5921 5920 5918 5918 5919 5918 5919 5921 5917 5916
5906 5906 5908 5910 5907 5908 5909 5910 5912 5911 5910 5910 5912 5912 5908 5905 5904 5904 5906 5908 5904 5902 5903 5903 5903 5905 5908 5911 5914 5918 5919 5920 5921 5921 5921 5921 5919 5917 5915 5914 5913 5915 5915 5914
5904 5904 5905 5908 5909 5905 5907 5907 5910 5911 5908 5910 5912 5914 5910 5904 5901 5903 5906 5907 5905 5903 5901 5900 5900 5901 5906 5910 5911 5912 5914 5916 5916 5919 5920 5920 5919 5916 5914 5913 5912 5911 5912 5909
5900 5902 5905 5905 5905 5904 5906 5907 5908 5909 5909 5907 5909 5909 5909 5906 5902 5900 5904 5908 5907 5905 5902 5901 5900 5900 5902 5902 5906 5910 5910 5911 5911 5912 5914 5916 5917 5914 5912 5910 5909 5910 5908 5898
5898 5899 5901 5900 5902 5903 5903 5903 5903 5906 5907 5907 5905 5906 5908 5908 5905 5904 5904 5906 5904 5906 5907 5903 5901 5901 5903 5901 5903 5905 5906 5908 5909 5910 5912 5913 5914 5911 5909 5907 5908 5909 5905 5894
5895 5895 5897 5901 5898 5896 5899 5902 5900 5901 5901 5903 5904 5903 5905 5906 5905 5905 5903 5907 5906 5906 5905 5905 5900 5901 5902 5902 5904 5905 5905 5906 5907 5909 5911 5911 5910 5907 5905 5905 5906 5904 5904 5903
5891 5890 5891 5894 5895 5895 5896 5899 5898 5899 5899 5898 5899 5902 5902 5906 5905 5903 5902 5905 5907 5904 5903 5902 5901 5899 5901 5903 5904 5904 5906 5906 5907 5908 5908 5906 5907 5904 5904 5905 5903 5901 5901 5900
5885 5884 5883 5886 5889 5891 5895 5893 5891 5891 5894 5895 5896 5897 5899 5900 5900 5899 5898 5902 5905 5903 5901 5900 5900 5899 5900 5901 5902 5903 5903 5903 5903 5906 5904 5904 5902 5901 5899 5900 5900 5899 5899 5898
5874 5877 5875 5875 5880 5884 5888 5891 5889 5887 5890 5891 5891 5892 5894 5895 5893 5894 5897 5901 5901 5901 5900 5900 5900 5900 5899 5899 5899 5900 5900 5900 5900 5901 5900 5898 5897 5897 5896 5896 5895 5896 5896 5895
5867 5866 5867 5871 5869 5873 5879 5875 5877 5879 5882 5876 5879 5879 5881 5887 5886 5890 5893 5895 5895 5895 5899 5898 5899 5899 5897 5896 5896 5896 5894 5893 5893 5894 5894 5895 5895 5893 5892 5893 5894 5894 5894 5894
5857 5857 5856 5858 5859 5862 5869 5869 5871 5871 5874 5873 5874 5875 5873 5877 5880 5884 5886 5888 5889 5891 5893 5895 5895 5896 5894 5893 5893 5891 5892 5893 5892 5891 5892 5895 5894 5891 5890 5892 5892 5893 5894 5895
5849 5849 5848 5849 5850 5851 5855 5860 5861 5859 5858 5865 5867 5866 5867 5869 5870 5873 5877 5879 5883 5884 5887 5888 5891 5893 5893 5892 5892 5890 5890 5890 5889 5889 5890 5891 5892 5891 5891 5892 5893 5894 5894 5895
5836 5839 5840 5841 5839 5840 5843 5847 5847 5848 5850 5853 5857 5859 5861 5863 5865 5867 5867 5870 5871 5878 5883 5886 5886 5889 5891 5890 5888 5886 5887 5887 5886 5886 5887 5889 5890 5890 5892 5892 5893 5893 5894 5894
5822 5822 5825 5830 5831 5828 5830 5831 5837 5836 5839 5840 5846 5850 5852 5855 5857 5857 5860 5863 5865 5861 5869 5878 5882 5883 5884 5883 5882 5882 5882 5884 5883 5884 5885 5887 5889 5889 5890 5891 5891 5892 5893 5893
5806 5807 5807 5809 5812 5815 5816 5815 5820 5826 5828 5829 5833 5842 5844 5848 5849 5848 5850 5853 5856 5857 5850 5859 5874 5877 5877 5878 5877 5879 5879 5880 5881 5882 5883 5885 5887 5888 5889 5889 5891 5891 5891 5892
5786 5786 5783 5785 5789 5793 5802 5799 5802 5810 5813 5815 5821 5833 5835 5838 5838 5840 5841 5844 5845 5850 5856 5858 5860 5869 5872 5873 5873 5874 5875 5876 5878 5879 5881 5882 5884 5886 5887 5888 5890 5890 5891 5892